Volver al catálogo

FREGAT DEB

LostHEO
NORAD 45970·DEBRIS·🇷🇺 Russia

Lanzado Jul 18, 2011 desde Baikonur Cosmodrome

Loading…

Próximos Pases (próximas 24 horas)

TLE

ObsoletoSource: Space-Track

Época: Aug 27, 2020, 11:29 UTC

1 45970U 11037GB  20240.47878944  .00048869  00000-0  35911-1 0  9991
2 45970  51.2214 259.6453 2828742 126.9059 262.5739  9.20163749  3155

Sigue FREGAT DEB en tiempo real con AllMySat

Download on the App Store